Skip to main content Skip to accessibility
This website is not compatible with your web browser. You should install a newer browser. If you live in Jersey and need help upgrading call the States of Jersey web team on 440099.
Homegov.je

L'înformâtion et les sèrvices publyis pouor I'Île dé Jèrri

  • Choose the service you want to log in to:

  • gov.je

    Update your notification preferences

  • one.gov.je

    Access government and parish services

  • CAESAR

    Clear goods through customs or claim relief

  • Talentlink

    View or update your States of Jersey job application

Local METARs

METAR EGJJ 211050Z 03011KT CAVOK 19/08 Q1019

METAR EGJB 211050Z 05010KT 020V080 CAVOK 18/04 Q1019

METAR EGJA 211050Z 05012KT CAVOK 15/08 Q1020

METAR LFRD 211100Z AUTO 02006KT 8000 NSC 17/10 Q1019 NOSIG

METAR LFRC 211100Z AUTO 05007KT 020V090 9000 NSC 17/09 Q1020 NOSIG

 

 

 

​Times are in Greenwich Mean Time (GMT) and not British Summer Time (BST). They will be one hour different during BST.

Back to top
rating button